ATLAS 5 CENTAUR DEB, 47245

Orbit data source: Space-Track

ATLAS 5 CENTAUR DEB, 47245 is space debris in HEO originally from a launch on Wed, 17 Oct 2018 UTC launched from the Air Force Eastern Test Range (AFETR). Debris objects in space refer to the collection of defunct objects orbiting the Earth. Examples of debris include non-operational satellites, rocket bodies, and fragments generated from explosions, collisions, or faulty payload assembly.

Loading next visibility...
Identifier
47245, 2018-079EF
Orbit
HEO
Country
Flag of USUS
Related business
Flag of USUnited Launch Alliance/Lockheed Martin (US)
Manufacturer
ULA Decatur
Mission
Spacecraft
Bus & Motor
Unknown
Mass
Unknown
Launch date (UTC)
2018-10-17 (8 years ago)
Launch vehicle
Unknown
Launch site
Air Force Eastern Test Range (AFETR)
Object type
Payload
Rocket body
Debris
Shape & HBR
Unknown shape, 1.1 m
Radar Cross Section
RCS unknown

Expand to show TLE details & history
Last TLE update: 1 week ago

TLE from 1 week ago
0 ATLAS 5 CENTAUR DEB
1 47245U 18079EF  26229.33801823 -.00000123  00000-0  00000-0 0  9993
2 47245  13.3806  15.7357 4934068  13.8059 355.7847  1.87234029 39088
Epoch: 2026-08-17T08:06Z
TLE epoch observation values (Epoch: 2026-08-17T08:06:44.775Z)
Latitude
0.00011°
Longitude
-71.65695°
Altitude
7,858.013 km
Speed
6.455 km/s
True Right ascension
01h 03m 00s
True Declination
0° 00' 00"
Sunlit
Object was in daylight at epoch
Visualization orbit readout
Latitude
Unknown
Longitude
Unknown
Altitude
Unknown
Speed
Unknown
Apparent Right ascension
Unknown
Apparent Declination
Unknown
Sunlit
N/A
Visualization observer readout
Local Sidereal Time
15:12:57
Azimuth
Unknown
Elevation
Unknown
Doppler factor
Unknown
Orbital elements
Apogee altitude
35,151.514 km
Perigee altitude
7,709.544 km
Semi-major axis
27,808.666 km
Eccentricity
0.49341
Inclination
13.3806°
RAAN
15.7357°
Arg. of periapsis
13.8059°
True anomaly
345.80985°
Mean anomaly
355.7847°
Eccentric anomaly
351.70729°
Mean motion
0.46803 °/min
Orbital period
769.18 mins
BSTAR
0
Loading maneuver chart data...
Computing Atmospheric mass density...

Documentation

Showing up to 5 results
|